Погода в Энфиде

Тунис     36°07′57″N   10°22′39″E
темп.,
°C
ветер,
м/с
пор.,
м/с
влажн.,
%
обл.,
%
осадки,
мм/ч
давл.,
гПа
погр.,
м
10 августа, ср
ср1001:00+27зсз33680 0.0 1016220
04:00+25сз45740 0.0 1015175
07:00+26ссз45700 0.0 1016272
10:00+30всв12450 0.0 1016614
13:00+29юв75570 0.0 1015606
16:00+29в77656 0.0 1014471
19:00+29всв55620 0.1 1014490
22:00+28ссв13610 0.0 1015391
11 августа, чт
чт1101:00+27ссз33650 0.0 1015181
04:00+26сз45680 0.0 1014232
07:00+26с35680 0.0 1015306
10:00+30ссв23520 0.0 1015788
13:00+29в665790 0.0 1014559
16:00+29в87620 0.0 1013671
19:00+28в66650 0.0 1013687
22:00+27ссв44640 0.0 1014342
12 августа, пт
пт1201:00+26с22700 0.0 1014213
04:00+25ссз23690 0.0 1013165
07:00+26ссз33670 0.0 1014229
10:00+29в12460 0.0 1014629
13:00+29юв75580 0.0 1013497
16:00+29вюв77620 0.0 1013543
19:00+28в55630 0.0 1013502
22:00+28юв22640 0.0 1015335
13 августа, сб
сб1301:00+27зюз23650 0.0 1014337
04:00+27юз23680 0.0 1013229
07:00+27юз23650 0.0 1014244
10:00+30ю33500 0.0 1014567
13:00+32юв66490 0.0 10131007
16:00+30юв76640 0.0 1012222
19:00+29вюв34730 0.0 1012177
22:00+29ссв12760 0.0 101320
14 августа, вс
вс1401:00+29сз33630 0.0 101234
04:00+29ссз45530 0.0 101170
07:00+28сз36440 0.0 1012253
10:00+32с12510 0.0 1012430
13:00+31в86592 0.0 1012481
16:00+30в89682 0.0 1011394
19:00+29всв896838 0.0 1011405
22:00+28вюв33691 0.0 1012381